TimeEST,TemperatureF,Dew PointF,Humidity,Sea Level PressureIn,VisibilityMPH,Wind Direction,Wind SpeedMPH,Gust SpeedMPH,PrecipitationIn,Events,Conditions,WindDirDegrees,DateUTC
12:51 AM,25.0,19.9,81,29.97,5.0,WNW,3.5,-,0.00,Snow,Light Snow,300,2013-03-02 05:51:00
1:42 AM,24.8,19.4,80,29.88,7.0,NW,5.8,-,0.00,,Overcast,310,2013-03-02 06:42:00
1:51 AM,25.0,19.9,81,29.96,8.0,NW,6.9,-,0.00,,Overcast,310,2013-03-02 06:51:00
2:51 AM,25.0,19.9,81,29.94,9.0,NW,5.8,-,N/A,,Overcast,310,2013-03-02 07:51:00
3:09 AM,24.8,19.4,80,29.86,8.0,NW,6.9,-,0.00,,Overcast,320,2013-03-02 08:09:00
3:51 AM,25.0,19.0,78,29.94,7.0,NW,4.6,-,0.00,Snow,Light Snow,310,2013-03-02 08:51:00
4:51 AM,25.0,18.0,75,29.94,9.0,NW,5.8,-,0.00,,Overcast,320,2013-03-02 09:51:00
5:51 AM,24.1,19.0,81,29.94,4.0,WNW,8.1,-,0.00,Snow,Light Snow,300,2013-03-02 10:51:00
6:01 AM,24.8,17.6,74,29.86,5.0,NW,6.9,-,0.00,Snow,Light Snow,320,2013-03-02 11:01:00
6:35 AM,24.8,17.6,74,29.86,7.0,NNW,3.5,-,0.00,Snow,Light Snow,330,2013-03-02 11:35:00
6:51 AM,24.1,18.0,77,29.95,5.0,North,4.6,-,0.00,Snow,Light Snow,350,2013-03-02 11:51:00
7:16 AM,24.8,17.6,74,29.86,2.0,NNW,4.6,-,0.00,Snow,Light Snow,340,2013-03-02 12:16:00
7:46 AM,24.8,17.6,74,29.87,3.0,NW,3.5,-,0.00,Snow,Light Snow,320,2013-03-02 12:46:00
7:51 AM,24.1,18.0,77,29.95,2.5,NW,3.5,-,0.00,Snow,Light Snow,310,2013-03-02 12:51:00
8:47 AM,24.8,17.6,74,29.88,1.5,NW,5.8,-,0.00,Snow,Light Snow,320,2013-03-02 13:47:00
8:51 AM,24.1,18.0,77,29.96,1.5,NW,5.8,-,0.00,Snow,Light Snow,320,2013-03-02 13:51:00
9:06 AM,24.8,17.6,74,29.87,2.0,NW,6.9,-,0.00,Snow,Light Snow,310,2013-03-02 14:06:00
9:21 AM,24.8,17.6,74,29.87,4.0,WNW,4.6,-,0.00,Snow,Light Snow,300,2013-03-02 14:21:00
9:51 AM,26.1,17.1,69,29.95,9.0,NW,5.8,-,0.00,,Overcast,320,2013-03-02 14:51:00
10:51 AM,26.1,17.1,69,29.94,5.0,NNW,10.4,-,0.00,Snow,Light Snow,330,2013-03-02 15:51:00
10:55 AM,24.8,17.6,74,29.86,1.8,NW,10.4,-,0.00,Snow,Light Snow,310,2013-03-02 15:55:00
11:08 AM,24.8,17.6,74,29.86,3.0,WNW,6.9,-,0.00,Snow,Light Snow,290,2013-03-02 16:08:00
11:16 AM,24.8,15.8,69,29.86,8.0,West,6.9,-,0.00,,Overcast,280,2013-03-02 16:16:00
11:25 AM,26.6,17.6,69,29.86,5.0,NW,9.2,-,0.00,Snow,Light Snow,320,2013-03-02 16:25:00
11:31 AM,24.8,17.6,74,29.86,2.5,NW,12.7,-,0.00,Snow,Light Snow,320,2013-03-02 16:31:00
11:51 AM,24.1,17.1,75,29.95,3.0,WNW,9.2,-,0.00,Snow,Light Snow,300,2013-03-02 16:51:00
12:06 PM,26.6,15.8,64,29.86,5.0,WNW,4.6,-,0.00,Snow,Light Snow,290,2013-03-02 17:06:00
12:33 PM,24.8,17.6,74,29.85,2.5,West,5.8,-,0.00,Snow,Light Snow,280,2013-03-02 17:33:00
12:51 PM,25.0,18.0,75,29.94,1.5,NW,8.1,-,0.00,Snow,Light Snow,310,2013-03-02 17:51:00
1:00 PM,26.6,17.6,69,29.85,3.0,WNW,4.6,-,0.00,Snow,Light Snow,290,2013-03-02 18:00:00
1:19 PM,26.6,15.8,64,29.84,9.0,NW,8.1,-,0.00,,Overcast,310,2013-03-02 18:19:00
1:51 PM,26.1,16.0,66,29.93,10.0,WNW,8.1,-,0.00,,Overcast,290,2013-03-02 18:51:00
2:08 PM,26.6,17.6,69,29.84,2.5,NW,10.4,-,0.00,Snow,Light Snow,310,2013-03-02 19:08:00
2:30 PM,26.6,17.6,69,29.84,3.0,WNW,10.4,-,0.00,Snow,Light Snow,290,2013-03-02 19:30:00
2:44 PM,26.6,17.6,69,29.84,6.0,NW,8.1,-,0.00,Snow,Light Snow,310,2013-03-02 19:44:00
2:51 PM,26.1,17.1,69,29.93,9.0,WNW,9.2,-,0.00,,Overcast,290,2013-03-02 19:51:00
3:51 PM,26.1,17.1,69,29.93,3.0,NNW,9.2,-,0.00,Snow,Light Snow,340,2013-03-02 20:51:00
3:57 PM,26.6,17.6,69,29.84,1.8,NW,6.9,-,0.00,Snow,Light Snow,320,2013-03-02 20:57:00
4:14 PM,26.6,19.4,74,29.85,3.0,WNW,6.9,-,0.00,Snow,Light Snow,290,2013-03-02 21:14:00
4:46 PM,26.6,17.6,69,29.85,9.0,WNW,10.4,-,0.00,Snow,Light Snow,300,2013-03-02 21:46:00
4:51 PM,26.1,17.1,69,29.93,9.0,WNW,12.7,-,0.00,Snow,Light Snow,300,2013-03-02 21:51:00
5:02 PM,26.6,17.6,69,29.85,9.0,NW,6.9,-,0.00,,Overcast,310,2013-03-02 22:02:00
5:40 PM,24.8,19.4,80,29.85,1.8,NW,4.6,-,0.00,Snow,Light Snow,310,2013-03-02 22:40:00
5:47 PM,24.8,19.4,80,29.86,1.2,Variable,5.8,-,0.00,Snow,Light Snow,0,2013-03-02 22:47:00
5:51 PM,25.0,19.0,78,29.95,1.2,NNW,4.6,-,0.00,Snow,Light Snow,330,2013-03-02 22:51:00
6:24 PM,24.8,19.4,80,29.86,2.0,NW,6.9,-,0.01,Snow,Light Snow,310,2013-03-02 23:24:00
6:41 PM,24.8,17.6,74,29.87,4.0,WNW,8.1,16.1,0.01,Snow,Light Snow,290,2013-03-02 23:41:00
6:51 PM,25.0,18.0,75,29.96,6.0,WNW,10.4,-,0.01,Snow,Light Snow,290,2013-03-02 23:51:00
7:34 PM,24.8,17.6,74,29.88,4.0,WNW,10.4,-,0.00,Snow,Light Snow,300,2013-03-03 00:34:00
7:51 PM,24.1,18.0,77,29.97,5.0,NNW,8.1,-,0.00,Snow,Light Snow,330,2013-03-03 00:51:00
8:51 PM,24.1,18.0,77,29.99,4.0,NW,5.8,-,0.00,Snow,Light Snow,310,2013-03-03 01:51:00
9:51 PM,24.1,17.1,75,29.99,6.0,NW,6.9,-,0.00,Snow,Light Snow,310,2013-03-03 02:51:00
10:30 PM,23.0,17.6,80,29.90,2.5,NNW,6.9,-,0.00,Snow,Light Snow,330,2013-03-03 03:30:00
10:51 PM,23.0,17.1,78,29.98,4.0,NW,6.9,-,0.00,Snow,Light Snow,310,2013-03-03 03:51:00
11:15 PM,23.0,17.6,80,29.90,5.0,WNW,5.8,-,0.00,Snow,Light Snow,300,2013-03-03 04:15:00
11:29 PM,23.0,17.6,80,29.90,3.0,NW,4.6,-,0.00,Snow,Light Snow,320,2013-03-03 04:29:00
11:51 PM,23.0,17.1,78,29.98,4.0,NW,5.8,-,0.00,Snow,Light Snow,320,2013-03-03 04:51:00